Total_Precipitation_Accumulation
0.35 0.29 0.39 0.45 0.42 0.45 0.63 0.62 0.55 0.34 0.32 0.33 0.33 0.37 0.40 0.43 0.44 0.44 0.45 0.51 0.64 0.74 0.74 0.74 0.75 0.75 0.72 0.75 0.87 0.94 0.93 1.02 1.10 1.22 1.30 1.27 1.24 1.27 1.36 1.45 1.49 1.54 1.55 1.49
0.36 0.22 0.29 0.36 0.30 0.30 0.34 0.31 0.30 0.23 0.27 0.30 0.31 0.30 0.32 0.33 0.38 0.42 0.43 0.47 0.54 0.62 0.69 0.77 0.84 0.86 0.83 0.80 0.84 0.93 0.92 0.97 1.01 1.15 1.29 1.30 1.23 1.26 1.38 1.47 1.46 1.48 1.51 1.51
0.66 0.28 0.51 0.58 0.37 0.32 0.33 0.32 0.29 0.34 0.35 0.30 0.27 0.29 0.35 0.36 0.38 0.41 0.42 0.43 0.45 0.54 0.67 0.75 0.83 0.85 0.87 0.84 0.87 0.93 0.94 0.96 1.01 1.13 1.21 1.28 1.26 1.29 1.39 1.47 1.47 1.46 1.46 1.46
1.07 0.74 1.02 0.55 0.28 0.28 0.32 0.34 0.31 0.31 0.27 0.27 0.31 0.34 0.40 0.40 0.42 0.42 0.44 0.46 0.45 0.53 0.65 0.67 0.74 0.78 0.82 0.78 0.90 0.96 0.97 0.96 1.00 1.08 1.12 1.23 1.28 1.30 1.41 1.47 1.43 1.42 1.42 1.41
1.45 1.03 0.55 0.31 0.28 0.37 0.46 0.46 0.34 0.27 0.20 0.19 0.23 0.30 0.39 0.36 0.39 0.43 0.45 0.49 0.51 0.54 0.62 0.61 0.67 0.73 0.78 0.74 0.83 0.91 0.96 0.91 0.93 1.00 1.05 1.15 1.22 1.29 1.37 1.47 1.42 1.37 1.34 1.38
1.58 1.16 0.57 0.38 0.26 0.29 0.43 0.59 0.35 0.26 0.24 0.23 0.27 0.42 0.44 0.38 0.38 0.38 0.38 0.44 0.51 0.53 0.56 0.57 0.62 0.66 0.69 0.74 0.77 0.85 0.91 0.83 0.87 0.93 0.98 1.07 1.14 1.22 1.30 1.32 1.34 1.35 1.30 1.30
1.32 1.05 0.44 0.30 0.26 0.31 0.66 0.73 0.38 0.32 0.32 0.32 0.41 0.48 0.43 0.40 0.41 0.42 0.42 0.43 0.46 0.48 0.52 0.57 0.60 0.61 0.63 0.71 0.77 0.80 0.89 0.83 0.86 0.89 0.93 1.01 1.09 1.11 1.19 1.25 1.26 1.32 1.31 1.27
1.01 1.11 0.57 0.32 0.38 0.65 0.76 0.43 0.34 0.33 0.32 0.35 0.36 0.34 0.33 0.36 0.42 0.49 0.48 0.43 0.46 0.48 0.51 0.53 0.55 0.59 0.62 0.66 0.72 0.79 0.84 0.83 0.89 0.93 0.94 0.97 1.03 1.02 1.06 1.17 1.23 1.27 1.31 1.33
0.85 0.70 0.46 0.41 0.51 0.54 0.45 0.38 0.31 0.32 0.32 0.34 0.33 0.32 0.36 0.39 0.43 0.50 0.51 0.47 0.48 0.51 0.49 0.51 0.54 0.60 0.66 0.69 0.70 0.78 0.81 0.81 0.88 0.96 0.98 0.99 0.99 1.00 1.04 1.10 1.19 1.23 1.24 1.24
0.56 0.40 0.31 0.30 0.31 0.31 0.29 0.30 0.29 0.29 0.32 0.34 0.34 0.32 0.38 0.40 0.43 0.47 0.48 0.50 0.52 0.54 0.53 0.53 0.54 0.60 0.68 0.72 0.70 0.76 0.80 0.80 0.85 0.90 0.96 1.00 0.97 0.92 0.93 1.03 1.15 1.17 1.18 1.13
0.43 0.28 0.26 0.25 0.24 0.25 0.22 0.21 0.21 0.22 0.24 0.27 0.30 0.32 0.37 0.40 0.43 0.49 0.51 0.53 0.54 0.56 0.58 0.59 0.57 0.63 0.69 0.71 0.70 0.74 0.73 0.72 0.78 0.80 0.90 1.00 0.99 0.93 0.92 0.93 1.11 1.23 1.18 1.13
0.39 0.28 0.34 0.28 0.23 0.23 0.23 0.21 0.22 0.24 0.22 0.21 0.25 0.31 0.34 0.37 0.40 0.50 0.55 0.55 0.56 0.57 0.59 0.64 0.63 0.65 0.69 0.71 0.68 0.68 0.69 0.68 0.71 0.75 0.81 0.91 0.94 0.96 1.05 1.04 1.07 1.08 1.08 1.13
0.29 0.22 0.23 0.22 0.21 0.21 0.23 0.22 0.21 0.23 0.25 0.23 0.22 0.26 0.30 0.34 0.38 0.45 0.51 0.55 0.58 0.62 0.62 0.65 0.66 0.68 0.71 0.70 0.69 0.68 0.68 0.68 0.70 0.74 0.77 0.83 0.85 0.84 0.97 1.08 1.12 1.06 1.00 1.03
0.18 0.18 0.18 0.16 0.18 0.19 0.21 0.20 0.18 0.19 0.21 0.22 0.22 0.23 0.25 0.29 0.32 0.41 0.52 0.57 0.58 0.58 0.60 0.63 0.64 0.69 0.75 0.76 0.76 0.72 0.70 0.75 0.77 0.75 0.77 0.82 0.81 0.77 0.80 0.88 0.96 1.02 1.03 1.02
0.13 0.17 0.18 0.16 0.16 0.19 0.21 0.20 0.18 0.19 0.21 0.21 0.21 0.22 0.24 0.28 0.32 0.43 0.52 0.55 0.56 0.56 0.59 0.62 0.64 0.70 0.74 0.80 0.82 0.74 0.74 0.77 0.80 0.78 0.80 0.83 0.82 0.79 0.79 0.80 0.83 0.89 0.96 1.05
0.16 0.16 0.15 0.16 0.18 0.20 0.24 0.24 0.23 0.23 0.24 0.25 0.24 0.25 0.26 0.28 0.31 0.39 0.48 0.54 0.56 0.60 0.63 0.63 0.68 0.76 0.80 0.84 0.86 0.81 0.81 0.90 0.90 0.84 0.83 0.87 0.88 0.88 0.86 0.85 0.86 0.86 0.89 0.98
0.21 0.19 0.18 0.19 0.19 0.21 0.26 0.29 0.28 0.26 0.27 0.27 0.27 0.27 0.26 0.27 0.28 0.32 0.41 0.50 0.57 0.61 0.64 0.67 0.72 0.76 0.81 0.87 0.89 0.86 0.86 0.91 0.98 0.90 0.85 0.91 0.97 0.96 0.92 0.92 0.93 0.89 0.86 0.94
0.22 0.22 0.21 0.21 0.21 0.23 0.25 0.27 0.28 0.26 0.27 0.27 0.26 0.25 0.26 0.29 0.31 0.35 0.41 0.47 0.50 0.51 0.58 0.67 0.74 0.78 0.80 0.87 0.91 0.89 0.88 0.91 0.94 0.93 0.90 0.96 1.02 1.01 0.98 0.98 0.97 0.95 0.91 0.95
0.16 0.18 0.18 0.18 0.18 0.20 0.22 0.25 0.26 0.24 0.25 0.26 0.26 0.28 0.30 0.31 0.33 0.37 0.39 0.40 0.44 0.51 0.58 0.66 0.77 0.74 0.76 0.85 0.94 0.91 0.91 0.94 0.97 0.97 0.93 1.02 1.06 1.03 1.01 1.00 0.99 0.96 0.97 0.96
0.15 0.16 0.17 0.18 0.16 0.18 0.20 0.22 0.24 0.23 0.24 0.26 0.28 0.30 0.32 0.33 0.35 0.37 0.38 0.41 0.48 0.60 0.63 0.71 0.73 0.74 0.76 0.80 0.88 0.91 0.96 0.97 0.99 1.00 0.98 0.99 1.03 1.07 1.05 1.03 1.02 1.01 1.02 1.02
0.17 0.18 0.19 0.19 0.18 0.18 0.21 0.22 0.25 0.25 0.25 0.28 0.31 0.34 0.35 0.34 0.36 0.38 0.41 0.44 0.47 0.56 0.63 0.72 0.75 0.80 0.83 0.87 0.92 0.95 1.00 1.00 1.02 1.05 1.05 1.04 1.05 1.07 1.05 1.06 1.05 1.03 1.02 1.04
0.24 0.23 0.24 0.24 0.23 0.23 0.23 0.24 0.26 0.29 0.30 0.33 0.35 0.36 0.36 0.35 0.36 0.39 0.43 0.49 0.52 0.63 0.69 0.72 0.80 0.93 1.01 1.00 0.92 0.95 1.00 1.01 1.03 1.06 1.08 1.06 1.06 1.09 1.07 1.07 1.09 1.05 1.01 1.02
0.29 0.30 0.30 0.30 0.28 0.27 0.26 0.27 0.30 0.33 0.37 0.38 0.39 0.40 0.40 0.40 0.41 0.44 0.49 0.49 0.54 0.69 0.76 0.82 0.96 1.08 1.11 1.00 0.93 0.95 0.99 1.01 1.03 1.06 1.10 1.08 1.08 1.09 1.10 1.08 1.08 1.07 1.04 1.02
0.33 0.35 0.36 0.36 0.33 0.31 0.32 0.34 0.35 0.39 0.43 0.44 0.45 0.46 0.48 0.47 0.46 0.47 0.53 0.59 0.66 0.77 0.83 0.92 1.04 1.10 1.12 1.02 0.96 0.99 1.02 1.02 1.02 1.06 1.09 1.10 1.12 1.12 1.10 1.10 1.10 1.05 1.00 0.97
0.37 0.37 0.36 0.37 0.38 0.39 0.39 0.40 0.40 0.43 0.46 0.47 0.48 0.49 0.52 0.53 0.55 0.55 0.56 0.61 0.70 0.78 0.83 0.90 0.99 1.06 1.06 1.04 1.00 1.02 1.04 1.06 1.09 1.13 1.14 1.14 1.13 1.13 1.11 1.07 1.05 1.04 1.00 0.96
0.41 0.41 0.41 0.42 0.45 0.46 0.46 0.45 0.47 0.49 0.49 0.50 0.50 0.51 0.54 0.57 0.59 0.60 0.62 0.65 0.71 0.78 0.81 0.85 0.92 0.99 1.02 1.03 1.02 1.04 1.06 1.10 1.14 1.12 1.09 1.10 1.09 1.10 1.08 1.05 1.00 0.98 0.97 0.94
0.46 0.45 0.45 0.46 0.48 0.50 0.52 0.52 0.54 0.56 0.56 0.56 0.58 0.57 0.57 0.59 0.62 0.64 0.66 0.69 0.74 0.78 0.82 0.86 0.91 0.97 1.02 1.05 1.07 1.09 1.09 1.08 1.09 1.10 1.10 1.09 1.06 1.07 1.05 1.02 1.00 0.97 0.95 0.93